India Forums Logo

Hum ne li hai... Shapath

India Forums > Forum Index > Hum ne li hai... Shapath
Hum ne li hai... Shapath is a story of tough cops against the flawed system with thrilling and contemporary police cases weaved in.
<< | 1 | 2 | 3 | 4 | 5 | 6 | 7 | 8 | 9 | 10 | 11 | 12 | 13 | 14 | 15 | 16 | 17 | 18 | ... >>
TIDTopic SubjectStart DateLast Entry
2997608Would You All Like Too See Madhura Back Into...5/25/2012 9:01:36 AM5/27/2012 2:01:47 PM
2999298im new !!5/26/2012 11:27:37 AM5/26/2012 11:27:37 AM
299946326th May -- EHQ Hum Ne Li Hai...Shapath WO/DL5/26/2012 2:31:24 PM5/26/2012 7:20:01 PM
300055427th May -- EHQ Hum Ne Li Hai...Shapath WO/DL5/27/2012 12:06:31 PM5/28/2012 12:23:23 AM
3001094Dead Forum5/28/2012 2:38:25 AM5/29/2012 6:21:22 AM
3001920Short Written Uptodate 27th May 20125/28/2012 9:31:35 AM5/29/2012 8:23:02 AM
3001928Short Uptodate 26th May 20125/28/2012 9:33:19 AM5/31/2012 11:54:59 PM
3003785deleted5/29/2012 8:21:45 AM5/29/2012 8:21:45 AM
30123182nd June -- EHQ Hum Ne Li Hai...Shapath WO/DL6/2/2012 10:59:35 AM6/3/2012 12:45:12 AM
3013370Game... making our own shapath 26/3/2012 5:40:09 AM10/26/2012 8:09:27 AM
3013461HNLHS Summary-02/06/20126/3/2012 6:56:16 AM6/5/2012 6:28:51 AM
3014530Piyush sachdev getting married on 25th june6/4/2012 2:53:09 AM6/5/2012 8:39:05 PM
30146363rd June -- EHQ Hum Ne Li Hai...Shapath WO/DL6/4/2012 3:40:25 AM6/5/2012 3:26:29 PM
3015129Why is rating going down for shapath?6/4/2012 7:41:44 AM6/5/2012 9:26:42 AM
3016134Which Actor?6/4/2012 1:08:00 PM6/8/2012 7:41:03 AM
3016140Written Uptodate 3rd May Still Uptodating6/4/2012 1:11:43 PM6/5/2012 10:42:36 AM
3016625Please Welcome New DT6/4/2012 8:56:02 PM6/6/2012 8:28:30 AM
3017428*~GOTW:Ke Ghar Mein~* Closed Note Page 96/5/2012 5:56:11 AM6/6/2012 6:16:55 AM
3017921Piyush Sachdev Shirtless6/5/2012 10:10:39 AM6/6/2012 2:58:11 AM
3018471Introduction and Welcome Corner6/5/2012 2:33:10 PM9/16/2012 7:27:11 PM
3018994Madhura naik sizzles;Priya-Ram to fight in BALH6/6/2012 1:25:48 AM6/6/2012 7:34:56 AM
3018999Madhura Naik stuck in a rave party(birthday party)6/6/2012 1:31:23 AM6/6/2012 7:30:32 AM
3019441*~GOTW:Bolly-TellyPairing~*6/6/2012 5:42:21 AM6/12/2012 6:35:26 AM
3021725|*|Handsome And Suave Inspector Abhigyan|*|!!!6/7/2012 5:12:03 AM8/17/2012 5:50:25 AM
3021898Worlds Most Sad Lovestory VM-Gautam-Shikha6/7/2012 6:45:31 AM6/11/2012 4:24:35 AM
3024761Love Story 2012 Still Uptodating6/8/2012 10:55:55 AM6/25/2012 12:46:25 PM
30263609th June -- EHQ Hum Ne Li Hai...Shapath WO/DL6/9/2012 10:56:22 AM6/11/2012 7:32:13 PM
3027178*~Shapathian Of The Week#13~*6/10/2012 3:26:32 AM6/12/2012 5:38:15 AM
3027688Child labor6/10/2012 10:42:54 AM6/11/2012 7:12:26 AM
3028666*~HNLHS Reloaded Media Center~*6/11/2012 3:42:35 AM6/24/2012 1:21:43 AM
3028741Video updates6/11/2012 4:22:03 AM6/11/2012 4:22:03 AM
302882710th June -- EHQ Hum Ne Li Hai...Shapath WO/DL6/11/2012 5:11:43 AM6/11/2012 10:01:34 PM
3029892HNLHS Team Party6/11/2012 12:18:24 PM7/30/2012 4:12:41 AM
3030072HNLHS Rules & Regulations (Updated)6/11/2012 1:58:09 PM8/11/2012 11:37:15 AM
3030230Tragic Love Story Of Gautam And Shikha6/11/2012 5:31:16 PM6/19/2012 3:55:17 AM
30313809 june 2012 epi WU still updating6/12/2012 8:15:57 AM6/12/2012 9:41:52 AM
303174910/06/2012 WU: Child Trafficking6/12/2012 10:13:43 AM6/17/2012 11:00:20 AM
3035469BIRTHDAY THREAD6/14/2012 8:21:08 AM6/19/2012 8:32:27 PM
303961416th June -- EHQ Hum Ne Li Hai...Shapath WO/DL6/16/2012 11:46:21 AM6/16/2012 9:08:56 PM
3039831Rating 16 June Episode6/16/2012 5:20:53 PM6/16/2012 9:07:52 PM
3040130Hasan Zaidi aka Gautam's real name6/17/2012 1:17:46 AM6/17/2012 8:07:43 AM
3040153New VM !!!!6/17/2012 1:48:22 AM6/17/2012 7:41:56 PM
304091717th June -- EHQ Hum Ne Li Hai...Shapath WO/DL6/17/2012 5:04:30 PM6/17/2012 5:04:30 PM
3041052A little thing to share6/17/2012 10:55:09 PM6/17/2012 10:55:09 PM
3041573Rating 17 June Episode6/18/2012 5:55:44 AM6/18/2012 6:44:04 AM
3041858COTW: Unscramble the Words (Closed)6/18/2012 8:41:39 AM6/24/2012 7:17:45 AM
304457217/06/2012 WU: Rich and Poor's Love6/19/2012 10:14:36 AM6/21/2012 7:21:05 AM
3045782A new member from facebook is here6/20/2012 1:55:50 AM10/9/2012 2:01:12 PM
3045966FF: Cops Vs Terrorists (UPDATED)!!!6/20/2012 3:57:34 AM6/24/2012 2:19:28 AM
3050874Which character?6/22/2012 6:49:24 AM6/25/2012 1:11:41 PM
3051834Viewers Feedback Time Too Lifeok...6/22/2012 2:07:26 PM7/11/2012 5:58:03 AM
3052881my dad passed away :'(6/23/2012 8:22:17 AM6/30/2012 2:09:59 PM
305309223rd June -- EHQ Hum Ne Li Hai...Shapath WO/DL6/23/2012 11:30:11 AM6/24/2012 9:36:15 AM
3054488OS: School Hijacked (UPDATED @ Pg7)6/24/2012 11:57:08 AM7/20/2012 12:21:59 PM
3054673Rating 23 June Episode6/24/2012 5:09:25 PM6/24/2012 5:09:25 PM
3054674Rating 24 June Episode6/24/2012 5:10:56 PM6/25/2012 3:49:37 AM
305469724th June -- EHQ Hum Ne Li Hai...Shapath WO/DL6/24/2012 6:20:58 PM6/25/2012 12:01:49 AM
3055543COTW 1 Winners6/25/2012 7:21:59 AM6/29/2012 6:50:23 AM
3056164Short And Sweet Stories (Will Be Up Soon)6/25/2012 11:02:45 AM6/25/2012 11:07:07 AM
3057140Piyush Sachdev nominated for the Gold Awards6/26/2012 1:02:02 AM6/26/2012 1:51:06 AM
3057225PIYUSH NOMINATED FOR GOLD AWARDS! PLS VOTE FOR HIM6/26/2012 2:35:30 AM6/30/2012 2:55:02 AM
3057307*~Shapathian Of The Week#14~*6/26/2012 3:24:22 AM6/29/2012 5:23:03 AM
3057743GOTW: Drop a Word, Add A Word (Closed)6/26/2012 6:53:33 AM7/13/2012 10:33:50 AM
305776524/06/2012 WU: Ek Baap Ka Dard6/26/2012 7:02:01 AM6/26/2012 8:42:11 AM
3057869Your Fav Jodi Is...6/26/2012 8:09:48 AM6/26/2012 8:09:48 AM
3059928Wedding pics of Akangsha and Piyush6/27/2012 6:15:08 AM8/8/2012 12:03:24 AM
3063465Shapath to end on 29th June 2012-Hasan Zaidi6/28/2012 7:33:30 PM6/29/2012 7:40:50 AM
3066376Mohan Kapur to enter Amrit Manthan as Nimrit's sav6/30/2012 5:51:50 AM7/3/2012 9:12:40 AM
306707230th June -- EHQ Hum Ne Li Hai...Shapath WO/DL6/30/2012 1:35:26 PM6/30/2012 1:35:26 PM
3068175Awesome Episodes!7/1/2012 1:14:39 PM7/3/2012 12:36:05 AM
3068505Shapath...Not going to end soon7/2/2012 12:57:29 AM7/3/2012 5:27:33 AM
30696591st July -- EHQ Hum Ne Li Hai...Shapath WO/DL7/2/2012 10:15:42 AM7/3/2012 2:34:28 AM
3071215thnk god sapath is not gonna be end7/3/2012 7:01:15 AM7/3/2012 10:35:43 PM
3072426HNLHS Written Uptodate For 30th June 20127/3/2012 4:08:30 PM7/9/2012 7:16:27 AM
3073080New photos of shapath cast with some other people7/4/2012 1:20:34 AM7/6/2012 11:01:02 PM
<< | 1 | 2 | 3 | 4 | 5 | 6 | 7 | 8 | 9 | 10 | 11 | 12 | 13 | 14 | 15 | 16 | 17 | 18 | ... >>